DW7831 Weather Reports


Display with metric or nautical units.
time (UTC)temp
F
wind
direction
speed
MPH
gust
MPH
rain 1hr
in
rain 24hr
in
rain mn
in
humidity
%
barometer
mb
20260508064508 31 305 0.0 0.0 0.00 0.00 0.00 17 1011.1
20260508063117 31 305 0.0 0.0 0.00 0.00 0.00 19 1011.2
20260508061557 32 305 0.0 0.0 0.00 0.00 0.00 20 1011.1
20260508060056 32 305 0.0 0.0 0.00 0.00 0.00 21 1011.1
20260508054549 32 305 0.0 0.0 0.00 0.00 0.00 22 1011.3
20260508053043 32 305 0.0 0.0 0.00 0.00 0.00 23 1011.2
20260508051541 31 305 0.0 0.0 0.00 0.00 0.00 26 1011.2
20260508050037 31 305 0.0 0.0 0.00 0.00 0.00 32 1011.4
20260508044536 31 305 0.0 0.0 0.00 0.00 0.00 36 1011.5
20260508043033 31 305 0.0 0.0 0.00 0.00 0.00 39 1011.3
20260508041531 32 305 0.0 0.0 0.00 0.00 0.00 43 1011.1
20260508040028 32 305 0.0 0.0 0.00 0.00 0.00 48 1011.1
20260508034524 33 305 0.0 0.0 0.00 0.00 0.02 51 1011.1
20260508033022 33 305 0.0 0.0 0.00 0.00 0.02 54 1011.3
20260508031516 34 305 0.0 0.0 0.00 0.00 0.02 56 1011.2
20260508030015 35 305 0.0 0.0 0.00 0.00 0.02 58 1011.1
20260508024517 35 305 0.0 0.0 0.00 0.00 0.02 59 1011.0
20260508023008 36 305 0.0 0.0 0.00 0.00 0.02 62 1011.1
20260508021501 37 305 0.0 0.0 0.00 0.00 0.02 64 1011.0
20260508020105 37 305 0.0 0.0 0.00 0.00 0.02 65 1011.0
20260508014556 38 305 0.0 0.0 0.00 0.00 0.02 65 1010.8
20260508013050 39 305 0.0 0.0 0.00 0.00 0.02 64 1010.7
20260508011545 40 305 0.0 0.0 0.00 0.00 0.02 64 1010.7
20260508010044 41 305 0.0 0.0 0.00 0.00 0.02 62 1010.6
20260508004539 43 305 0.0 0.0 0.00 0.00 0.02 59 1010.5
20260508003034 44 305 0.0 0.0 0.00 0.00 0.02 56 1010.1
20260508001535 45 305 0.0 0.0 0.00 0.00 0.02 52 1009.8
20260508000033 46 305 0.0 0.0 0.00 0.00 0.02 50 1009.8
20260507234533 47 304 0.0 0.0 0.00 0.00 0.02 48 1009.8
20260507233041 48 304 0.0 0.0 0.00 0.00 0.02 47 1009.5
20260507231536 48 315 2.0 0.0 0.00 0.00 0.02 46 1009.7
20260507230034 49 315 2.0 0.0 0.00 0.00 0.02 46 1009.7
20260507224540 48 303 3.0 0.0 0.00 0.00 0.02 46 1009.6
20260507223033 49 307 5.0 0.0 0.00 0.00 0.02 45 1009.5
20260507221535 49 298 3.0 0.0 0.00 0.00 0.02 44 1009.4
20260507220027 49 300 3.0 0.0 0.00 0.00 0.02 46 1009.6
20260507214524 49 321 2.0 0.0 0.00 0.00 0.02 45 1009.7
20260507213018 49 271 2.0 0.0 0.00 0.00 0.02 45 1009.7
20260507211521 50 310 2.0 0.0 0.00 0.00 0.02 44 1009.5
20260507210008 49 265 2.0 0.0 0.00 0.00 0.02 45 1009.4
20260507204505 49 281 3.0 0.0 0.00 0.00 0.02 44 1009.5
20260507203111 49 277 2.0 0.0 0.00 0.00 0.02 46 1009.6
20260507201600 51 270 5.0 0.0 0.00 0.00 0.02 44 1009.6
20260507200107 51 273 4.0 0.0 0.00 0.00 0.02 44 1009.4
20260507194549 50 225 5.0 0.0 0.00 0.00 0.02 47 1009.7
20260507193048 50 267 5.0 0.0 0.00 0.00 0.02 48 1009.9
20260507191540 48 334 3.0 0.0 0.00 0.00 0.02 52 1010.0
20260507190037 49 305 2.0 0.0 0.00 0.00 0.02 50 1010.1
20260507184532 48 280 2.0 0.0 0.00 0.00 0.02 53 1010.2
20260507183028 48 294 4.0 0.0 0.00 0.00 0.02 51 1010.3
20260507181529 48 263 3.0 0.0 0.00 0.00 0.02 50 1010.4
20260507180026 48 252 5.0 0.0 0.00 0.00 0.02 53 1010.4
20260507174523 47 290 3.0 0.0 0.00 0.00 0.02 51 1010.6
20260507173030 48 292 4.0 0.0 0.00 0.00 0.02 50 1010.4
20260507171517 48 313 3.0 0.0 0.00 0.00 0.02 51 1010.7
20260507170016 48 284 4.0 0.0 0.00 0.00 0.02 50 1010.7
20260507164510 48 290 4.0 0.0 0.00 0.00 0.02 50 1010.7
20260507163010 48 257 3.0 0.0 0.00 0.00 0.02 50 1010.9
20260507161503 47 287 4.0 0.0 0.00 0.00 0.02 51 1011.0
20260507160100 47 234 4.0 0.0 0.00 0.00 0.02 52 1011.0
20260507154559 47 24 3.0 0.0 0.00 0.00 0.02 52 1011.1
20260507153051 46 234 4.0 0.0 0.00 0.00 0.02 54 1011.7
20260507151547 46 286 4.0 0.0 0.00 0.00 0.02 55 1011.6
20260507150044 45 290 3.0 0.0 0.00 0.00 0.02 54 1011.5
20260507144539 45 323 7.0 0.0 0.00 0.00 0.02 54 1011.6
20260507143037 44 304 6.0 0.0 0.00 0.00 0.01 56 1011.8
20260507141530 44 236 6.0 0.0 0.00 0.00 0.01 57 1011.5
20260507140032 43 284 5.0 0.0 0.00 0.00 0.01 57 1011.5
20260507134528 43 309 4.0 0.0 0.00 0.00 0.01 57 1011.7
20260507133025 42 274 4.0 0.0 0.00 0.00 0.01 58 1011.5
20260507131523 41 287 4.0 0.0 0.00 0.00 0.01 59 1011.5
20260507130014 41 285 4.0 0.0 0.00 0.00 0.01 59 1011.7
20260507124511 40 269 4.0 0.0 0.00 0.00 0.01 59 1011.5
20260507123008 40 280 1.0 0.0 0.00 0.00 0.01 59 1011.5
20260507121501 39 244 3.0 0.0 0.00 0.00 0.01 59 1011.6
20260507120103 38 229 3.0 0.0 0.00 0.00 0.01 59 1011.6
20260507114634 38 271 1.0 0.0 0.00 0.00 0.01 56 1011.4
20260507113048 38 263 1.0 0.0 0.00 0.00 0.01 51 1011.6
20260507111546 37 259 1.0 0.0 0.00 0.00 0.01 44 1011.2
20260507110041 36 259 1.0 0.0 0.00 0.00 0.01 36 1011.2
20260507104537 35 261 1.0 0.0 0.00 0.00 0.01 30 1011.1
20260507103033 35 265 0.0 0.0 0.00 0.00 0.01 28 1011.1
20260507101529 35 269 0.0 0.0 0.00 0.00 0.01 24 1010.8
20260507100024 36 269 0.0 0.0 0.00 0.00 0.01 21 1010.6
20260507094521 36 270 1.0 0.0 0.00 0.00 0.01 18 1010.8
20260507093016 36 270 0.0 0.0 0.00 0.00 0.01 18 1010.8
20260507091512 37 270 1.0 0.0 0.00 0.00 0.01 12 1010.5
20260507090020 38 270 1.0 0.0 0.00 0.00 0.01 100 1010.5
20260507084504 38 270 1.0 0.0 0.00 0.00 0.01 100 1010.8
20260507083001 39 271 2.0 0.0 0.00 0.00 0.01 100 1010.4
20260507081557 39 268 1.0 0.0 0.00 0.00 0.01 100 1010.4
20260507080118 40 288 2.0 0.0 0.00 0.00 0.01 100 1010.4
20260507074554 40 287 2.0 0.0 0.00 0.00 0.01 100 1010.5
20260507073052 40 258 1.0 0.0 0.00 0.00 0.01 100 1010.5
20260507071543 40 283 3.0 0.0 0.00 0.00 0.00 100 1010.3
20260507070038 41 258 4.0 0.0 0.00 0.00 0.00 100 1010.0